This demonstration page uses our WeatherBlox Daily Observations layout. Learn more.

Left ArrowRight Arrow

Hourly Observations for November 27, 2021

Temp ( °F °C ) Dew Point ( °F °C ) Humidity (%) Winds ( mph kmh ) Pressure ( in mb ) Visibility ( mi km ) Precip ( " mm )
12:15 am 00:15 Clear 48 9.1 25 -4.1 39 39 W 5 7 29.87 1012 10 16 0.00 0.00
12:35 am 00:35 Clear 49 9.4 24 -4.5 37 37 W 7 11 29.87 1011 10 16 0.00 0.00
12:55 am 00:55 Clear 48 8.9 23 -4.8 38 38 NNW 6 9 29.87 1012 10 16 0.00 0.00
1:15 am 01:15 Clear 46 7.9 23 -5 40 40 WNW 6 9 29.88 1012 10 16 0.00 0.00
1:35 am 01:35 Clear 46 8 23 -5 40 40 WNW 8 13 29.88 1012 10 16 0.00 0.00
1:55 am 01:55 Clear 43 6.3 23 -5 45 45 WNW 6 9 29.90 1012 10 16 0.00 0.00
2:15 am 02:15 Clear 42 5.6 22 -5.5 45 45 NW 7 11 29.91 1013 10 16 0.00 0.00
2:35 am 02:35 Clear 41 5 23 -5.2 48 48 WNW 6 9 29.92 1013 10 16 0.00 0.00
2:55 am 02:55 Clear 41 4.8 23 -5.2 49 49 NW 9 15 29.92 1013 10 16 0.00 0.00
3:15 am 03:15 Clear 41 5.1 22 -5.5 47 47 NW 12 19 29.93 1013 10 16 0.00 0.00
3:35 am 03:35 Clear 42 5.3 23 -5.1 47 47 NW 10 17 29.94 1014 10 16 0.00 0.00
3:55 am 03:55 Clear 42 5.5 23 -5.1 47 47 NW 10 17 29.93 1014 10 16 0.00 0.00
4:15 am 04:15 Clear 42 5.3 23 -5 48 48 NW 12 19 29.95 1014 10 16 0.00 0.00
4:35 am 04:35 Clear 41 4.8 23 -5 49 49 NW 10 17 29.96 1015 10 16 0.00 0.00
4:55 am 04:55 Clear 41 4.8 23 -4.8 50 50 NW 10 17 29.98 1015 10 16 0.00 0.00
5:15 am 05:15 Clear 41 4.9 24 -4.5 51 51 NNW 10 17 29.99 1016 10 16 0.00 0.00
5:35 am 05:35 Clear 41 4.8 24 -4.2 53 53 NNW 10 17 30.00 1016 10 16 0.00 0.00
5:55 am 05:55 Clear 40 4.7 25 -3.9 54 54 NNW 7 11 30.01 1016 10 16 0.00 0.00
6:15 am 06:15 Clear 39 4.1 25 -3.7 57 57 NW 7 11 30.03 1017 10 16 0.00 0.00
6:35 am 06:35 Clear 40 4.2 26 -3.1 59 59 NW 9 15 30.04 1017 10 16 0.00 0.00
6:55 am 06:55 Clear 40 4.5 28 -2.5 61 61 NNW 9 15 30.04 1017 10 16 0.00 0.00
7:15 am 07:15 Clear 41 4.8 28 -2.1 61 61 NW 10 17 30.05 1018 10 16 0.00 0.00
7:35 am 07:35 Clear 41 5 28 -2 61 61 NW 10 17 30.06 1018 10 16 0.00 0.00
7:55 am 07:55 Sunny 42 5.5 29 -1.5 61 61 NNW 10 17 30.06 1018 10 16 0.00 0.00
8:15 am 08:15 Sunny 43 6.3 30 -1 60 60 NNW 14 22 30.07 1018 10 16 0.00 0.00
8:35 am 08:35 Sunny 45 7.2 31 -0.6 58 58 NNW 9 15 30.08 1019 10 16 0.00 0.00
8:55 am 08:55 Sunny 47 8.3 32 -0.2 55 55 NNW 9 15 30.08 1019 10 16 0.00 0.00
9:15 am 09:15 Sunny 50 10.1 32 0 50 50 N 9 15 30.06 1018 10 16 0.00 0.00
9:35 am 09:35 Sunny 53 11.9 32 0 44 44 NNW 15 24 30.06 1018 10 16 0.00 0.00
9:55 am 09:55 Sunny 55 12.6 32 -0.1 42 42 NNW 15 24 30.06 1018 10 16 0.00 0.00
10:15 am 10:15 Sunny 56 13.5 31 -0.6 38 38 NNW 17 28 30.06 1018 10 16 0.00 0.00
10:35 am 10:35 Sunny 58 14.2 30 -1.3 35 35 NNW 21 33 30.06 1018 10 16 0.00 0.00
10:55 am 10:55 Sunny 58 14.5 30 -1 35 35 NNW 15 24 30.06 1018 10 16 0.00 0.00
11:15 am 11:15 Sunny 59 15.2 29 -1.5 32 32 NNW 22 35 30.06 1018 10 16 0.00 0.00
11:35 am 11:35 Sunny 61 15.9 28 -2 29 29 N 16 26 30.04 1017 10 16 0.00 0.00
11:55 am 11:55 Sunny 61 16 24 -4.4 24 24 N 20 31 30.04 1017 10 16 0.00 0.00
12:15 pm 12:15 Sunny 61 16.2 24 -4.7 24 24 N 21 33 30.04 1017 10 16 0.00 0.00
12:35 pm 12:35 Sunny 62 16.4 23 -5.1 23 23 NNW 23 37 30.04 1017 10 16 0.00 0.00
12:55 pm 12:55 Sunny 60 15.3 22 -5.4 24 24 N 21 33 30.06 1018 10 16 0.00 0.00
1:15 pm 13:15 Sunny 60 15.7 21 -5.9 22 22 N 22 35 30.05 1018 10 16 0.00 0.00
1:35 pm 13:35 Sunny 60 15.5 20 -6.4 22 22 N 21 33 30.05 1018 10 16 0.00 0.00
1:55 pm 13:55 Sunny 60 15.6 22 -5.6 23 23 NNW 18 30 30.04 1017 10 16 0.00 0.00
2:15 pm 14:15 Sunny 60 15.7 23 -5.2 23 23 NNW 20 31 30.05 1018 10 16 0.00 0.00
2:35 pm 14:35 Sunny 60 15.6 24 -4.6 25 25 NNW 14 22 30.05 1018 10 16 0.00 0.00
2:55 pm 14:55 Sunny 60 15.5 24 -4.3 25 25 NNW 15 24 30.05 1018 10 16 0.00 0.00
3:15 pm 15:15 Sunny 60 15.3 24 -4.2 26 26 NNW 16 26 30.06 1018 10 16 0.00 0.00
3:35 pm 15:35 Sunny 59 15 25 -4.1 27 27 NNW 17 28 30.07 1018 10 16 0.00 0.00
3:55 pm 15:55 Sunny 57 13.8 25 -4 29 29 N 13 20 30.09 1019 10 16 0.00 0.00
4:15 pm 16:15 Sunny 56 13.4 25 -3.7 31 31 NNW 15 24 30.10 1019 10 16 0.00 0.00
4:35 pm 16:35 Sunny 55 12.9 25 -4.1 31 31 NNW 13 20 30.12 1020 10 16 0.00 0.00
4:55 pm 16:55 Sunny 54 12.4 24 -4.3 31 31 N 15 24 30.12 1020 10 16 0.00 0.00
5:15 pm 17:15 Clear 53 11.4 24 -4.4 33 33 NNW 9 15 30.14 1021 10 16 0.00 0.00
5:35 pm 17:35 Clear 49 9.6 24 -4.5 37 37 N 9 15 30.17 1022 10 16 0.00 0.00
5:55 pm 17:55 Clear 49 9.6 25 -4.1 38 38 N 8 13 30.18 1022 10 16 0.00 0.00
6:15 pm 18:15 Clear 47 8.6 25 -3.7 42 42 N 8 13 30.20 1023 10 16 0.00 0.00
6:35 pm 18:35 Clear 45 7.1 26 -3.1 49 49 N 8 13 30.22 1023 10 16 0.00 0.00
6:55 pm 18:55 Clear 45 7 27 -2.8 50 50 N 6 9 30.23 1024 10 16 0.00 0.00
7:15 pm 19:15 Clear 44 6.5 27 -2.6 53 53 NNW 7 11 30.24 1024 10 16 0.00 0.00
7:35 pm 19:35 Clear 43 6.2 28 -2.3 55 55 N 7 11 30.26 1025 10 16 0.00 0.00
7:55 pm 19:55 Clear 42 5.5 28 -2.5 57 57 NNW 5 7 30.26 1025 10 16 0.00 0.00
8:15 pm 20:15 Clear 40 4.6 28 -2.5 60 60 NNW 7 11 30.28 1025 10 16 0.00 0.00
8:35 pm 20:35 Clear 40 4.3 27 -2.7 61 61 NNW 6 9 30.29 1026 10 16 0.00 0.00
8:55 pm 20:55 Clear 39 4.1 28 -2.5 63 63 NNW 6 9 30.30 1026 10 16 0.00 0.00
9:15 pm 21:15 Clear 40 4.2 28 -2.3 63 63 NNW 5 7 30.30 1026 10 16 0.00 0.00
9:35 pm 21:35 Clear 38 3.4 27 -2.6 65 65 NW 5 7 30.31 1027 10 16 0.00 0.00
9:55 pm 21:55 Clear 38 3.1 27 -2.6 67 67 WNW 3 6 30.32 1027 10 16 0.00 0.00
10:15 pm 22:15 Clear 38 3.1 27 -2.6 67 67 WNW 3 6 30.32 1027 10 16 0.00 0.00
10:35 pm 22:35 Clear 35 1.8 27 -3 71 71 NW 5 7 30.34 1027 10 16 0.00 0.00
10:55 pm 22:55 Clear 35 1.6 26 -3.1 71 71 NW 6 9 30.34 1027 10 16 0.00 0.00
11:15 pm 23:15 Clear 35 1.5 26 -3.1 72 72 NW 5 7 30.34 1027 10 16 0.00 0.00
11:35 pm 23:35 Clear 35 1.7 27 -2.8 72 72 NW 5 7 30.35 1028 10 16 0.00 0.00
11:55 pm 23:55 Clear 35 1.9 27 -2.6 72 72 NW 5 7 30.35 1028 10 16 0.00 0.00

Powered by AerisWeather